Location: Cisewo
(53.3833°N, 14.9000°E)
Time: 12:04:02
(UTC+00:00)

Cosmos 1092 Rocket - Pass Details

Date: 18 April 2021
Orbit: 953 x 996 km, 82.9° (Epoch: 14 May)

Event Time Altitude Azimuth Distance (km) Brightness Sun altitude
Rises 18:55:28 0° 348° (NNW) 3,707 7.7 -7.4°
Reaches altitude 10° 18:58:01 10° 348° (NNW) 2,749 7.0 -7.7°
Maximum altitude 19:04:18 79° 263° (W) 997 4.2 -8.5°
Drops below altitude 10° 19:10:30 10° 177° (S) 2,701 6.0 -9.3°
Sets 19:12:58 0° 177° (S) 3,638 6.6 -9.6°
